GEFSMA_con_prob3kmehi_222.txt.gz
EHI
0 0 0 0 0 0 0 0 0 0 0 0 0 0 1 1 1 1 1 4 6 6 6 6 5 4 3 2 2 3 3 4 4 3 1 0 0 0 0 0 0 0 0
0 0 0 0 0 0 0 0 0 0 0 0 0 0 0 0 1 1 1 2 4 6 6 6 5 4 4 3 3 4 4 4 5 3 1 0 0 0 0 0 0 0 0
0 0 0 0 0 0 0 0 0 0 0 0 0 0 0 0 0 0 0 0 2 3 5 6 6 6 6 6 6 6 6 5 5 4 2 0 0 0 0 0 0 0 0
0 0 0 0 0 0 0 0 0 0 0 0 0 0 0 0 0 0 0 0 0 1 2 4 6 6 6 7 8 7 6 5 5 4 3 1 0 0 0 0 0 0 0
0 0 0 0 0 0 0 0 0 0 0 0 0 0 0 0 1 0 0 0 0 0 0 2 4 4 4 6 7 8 7 5 5 5 5 3 1 0 0 0 0 0 0
0 0 0 0 0 0 0 0 0 0 0 0 0 0 0 0 0 0 0 0 1 0 0 0 1 1 2 4 6 7 7 5 3 4 5 4 2 0 0 0 0 0 0
1 1 0 0 0 0 0 0 0 0 0 0 0 0 0 0 0 0 0 0 0 0 0 0 0 0 1 2 4 5 5 4 3 3 4 3 2 0 0 0 0 0 0
3 2 1 0 0 0 0 0 0 0 0 0 0 0 0 0 0 0 0 0 0 0 0 0 0 0 0 0 1 3 4 5 4 4 3 3 2 1 0 0 0 0 0
4 5 4 2 1 1 1 1 0 1 1 0 0 0 0 0 0 0 0 0 0 0 0 0 0 0 0 0 1 2 3 4 4 4 4 3 3 2 1 0 0 0 0
5 7 7 5 4 4 3 3 2 3 2 1 1 0 0 0 0 0 0 0 0 0 0 0 0 0 0 1 2 3 2 2 3 4 4 3 3 3 2 1 0 0 0
5 7 7 7 7 7 6 5 5 5 4 3 2 1 0 0 0 0 0 0 0 0 0 0 0 0 1 2 3 3 3 2 1 3 4 4 4 4 4 2 1 0 0
6 7 6 7 9 9 8 6 6 5 5 4 3 3 1 0 0 0 0 0 0 0 0 0 0 0 1 2 3 3 3 2 1 1 2 3 4 5 4 3 1 1 0
7 6 6 7 10 10 8 6 5 4 4 3 4 4 3 1 0 0 0 0 0 0 0 0 0 0 0 1 2 2 2 2 1 0 0 1 2 3 3 3 2 2 1
7 6 6 7 8 8 7 5 5 4 3 3 4 5 4 3 1 0 0 0 0 0 0 0 0 0 0 0 1 1 1 1 0 0 0 0 0 1 1 1 2 2 2
8 8 8 7 6 6 5 5 6 5 4 3 3 4 4 3 2 0 0 0 0 0 0 0 0 0 0 0 0 0 0 0 0 0 0 0 0 0 0 0 1 1 1
10 11 10 8 8 7 6 6 6 5 4 3 3 3 2 2 1 0 0 0 0 0 0 0 0 0 0 0 0 0 0 0 0 0 0 0 0 0 0 0 0 0 0
11 12 12 11 10 10 8 7 6 4 4 3 2 1 1 1 0 0 0 0 1 1 0 0 0 0 0 0 0 0 0 0 0 0 0 0 0 0 0 0 0 0 0
11 12 12 11 11 10 8 7 7 6 4 2 1 0 0 0 0 0 0 0 1 2 1 0 0 0 0 0 0 0 0 0 0 0 0 0 0 0 0 0 0 0 0
10 9 10 10 9 8 7 7 8 7 3 1 0 0 0 0 0 0 0 0 1 2 2 1 1 0 0 0 0 0 0 0 0 0 0 0 0 0 0 0 0 0 0
9 8 7 8 7 7 6 5 6 6 3 0 0 0 0 0 0 1 1 0 0 1 2 2 1 0 0 0 0 0 0 0 0 0 0 0 0 0 0 0 0 0 0
9 7 7 7 7 7 5 4 4 3 2 1 1 1 0 1 1 1 1 0 0 0 1 1 1 0 0 0 0 0 0 0 0 0 0 0 0 0 0 0 0 0 0
10 9 7 7 7 6 5 3 3 2 2 2 2 1 1 2 2 2 1 0 0 0 0 0 0 0 0 0 0 0 0 0 0 0 0 0 0 0 0 0 0 0 0
11 10 9 8 7 5 3 2 2 2 2 2 2 2 2 3 3 3 1 0 0 0 0 0 0 0 0 0 0 0 0 0 0 0 0 0 0 0 0 0 0 0 0
10 9 8 8 8 5 3 2 1 1 1 2 2 3 2 2 2 3 2 0 0 0 0 0 0 0 0 0 0 0 0 0 0 0 0 0 0 0 0 0 0 0 0
6 6 6 6 6 5 4 2 1 1 1 1 1 1 1 0 1 1 1 0 0 0 0 0 0 0 0 0 0 0 0 0 0 0 0 0 0 0 0 0 0 0 0
4 4 4 4 4 4 4 3 1 1 1 1 0 0 0 0 0 0 0 0 0 0 0 0 0 0 0 0 0 0 0 0 0 0 0 0 0 0 0 0 0 0 0

GEFSMA_con_prob3kmehi_228.txt.gz
EHI
0 0 0 0 0 0 0 0 0 0 0 0 0 0 0 0 0 0 0 1 2 2 4 4 3 1 0 0 0 0 0 0 0 0 0 0 0 0 0 0 0 0 1
0 0 0 0 0 0 0 0 0 0 0 0 0 0 0 0 0 0 0 0 1 1 3 4 2 0 0 0 0 0 0 0 0 0 0 0 0 0 0 0 0 0 1
0 0 0 0 0 0 0 0 0 0 0 0 0 0 0 0 0 0 0 0 0 1 2 3 2 1 1 1 1 1 1 0 0 0 0 0 0 0 0 0 0 0 1
0 0 0 0 0 0 0 0 0 0 0 0 0 0 0 0 0 0 0 0 0 0 1 1 2 2 2 2 2 2 1 1 1 0 0 0 0 0 0 0 0 0 0
0 0 0 0 0 0 0 0 0 0 0 0 0 0 0 0 0 0 0 0 0 0 0 0 1 1 1 1 1 1 1 1 1 1 0 0 0 0 0 0 0 0 0
0 0 0 0 0 0 0 0 0 0 0 0 0 0 0 0 0 0 0 0 0 0 0 0 0 0 0 0 0 0 0 1 1 1 1 1 0 0 0 0 0 0 0
0 0 0 0 0 0 0 0 0 0 0 0 0 0 0 0 0 0 0 0 0 0 0 0 0 0 0 0 0 0 0 0 0 1 2 2 1 0 0 0 0 0 0
0 0 0 0 0 0 0 0 0 0 0 0 0 0 0 0 0 0 0 0 0 0 0 0 0 0 0 0 0 0 0 0 0 1 2 3 2 1 1 1 1 0 0
0 0 0 0 0 0 0 0 0 0 0 0 0 0 0 0 0 0 0 0 0 0 0 0 0 0 0 0 0 0 0 0 0 1 2 3 3 3 2 2 2 1 0
1 1 0 0 0 0 0 0 0 0 1 1 0 0 0 0 0 0 0 0 0 0 0 0 0 0 0 0 0 0 0 0 0 0 1 3 3 3 3 3 3 2 1
2 1 0 0 0 0 0 0 0 1 2 1 0 0 0 0 0 0 0 0 0 0 0 0 0 0 0 0 0 0 0 0 0 0 0 1 1 1 2 2 2 1 0
1 1 0 0 0 0 1 1 1 1 2 2 1 1 0 0 0 0 0 0 0 0 0 0 0 0 0 0 0 0 0 0 0 0 0 0 0 0 1 1 1 0 0
1 1 0 0 0 0 1 1 1 1 2 3 2 2 1 1 0 0 0 0 0 0 0 0 0 0 0 0 0 0 0 0 0 0 0 0 0 0 0 0 0 0 0
3 2 1 0 0 0 0 1 1 2 2 2 2 2 2 2 1 0 0 0 0 0 0 0 0 0 0 0 0 0 0 0 0 0 0 0 0 0 0 0 0 0 0
5 5 3 1 1 1 0 0 1 1 1 1 1 1 2 2 1 0 0 0 0 0 0 0 0 0 0 0 0 0 0 0 0 0 0 0 0 0 0 0 0 0 0
5 5 4 3 1 1 1 0 0 0 0 0 0 0 1 1 1 0 0 0 0 0 0 0 0 0 0 0 0 0 0 0 0 0 0 0 0 0 0 0 0 0 0
4 4 4 3 3 2 2 1 0 0 0 0 0 0 0 0 0 0 0 0 0 0 0 0 0 0 0 0 0 0 0 0 0 0 0 0 0 0 0 0 0 0 0
3 3 3 4 3 3 3 2 1 0 0 0 0 0 0 0 0 0 0 1 1 2 1 0 0 0 0 0 0 0 0 0 0 0 0 0 0 0 0 0 0 0 0
3 3 4 4 4 3 3 3 2 1 0 0 0 0 0 0 0 0 1 2 2 2 1 0 0 0 0 0 0 0 0 0 0 0 0 0 0 0 0 0 0 0 0
3 3 3 4 3 3 3 4 3 1 0 0 0 0 0 1 0 1 2 3 3 2 1 1 1 1 0 0 0 0 0 0 0 0 0 0 0 0 0 0 0 0 0
4 4 3 3 3 3 3 4 3 1 0 0 0 0 0 0 0 1 2 3 3 3 3 3 2 2 1 0 0 0 0 0 0 0 0 0 0 0 0 0 0 0 0
5 5 5 5 4 3 2 2 3 2 1 0 0 0 0 0 0 1 1 1 1 2 3 3 3 3 2 1 0 0 0 0 0 0 0 0 0 0 0 0 0 0 0
6 7 7 7 5 3 1 1 1 1 1 1 1 1 2 1 2 2 1 1 1 1 2 2 3 3 2 1 0 0 0 0 0 0 0 0 0 0 0 0 0 0 0
7 7 7 7 5 2 1 0 0 0 1 1 2 2 2 2 2 2 2 2 1 0 0 1 2 2 1 0 0 0 0 0 0 1 1 0 0 0 0 0 0 0 0
6 6 6 5 4 2 0 0 0 0 0 1 1 1 1 1 1 1 1 1 1 0 0 0 1 1 0 0 0 0 0 0 1 2 1 0 0 0 0 0 0 0 0
6 5 4 4 4 2 1 0 0 0 0 0 0 0 0 0 0 0 0 0 0 0 0 0 0 0 0 0 0 0 0 1 2 2 1 0 0 0 0 0 0 0 0

GEFSMA_con_prob3kmehi_234.txt.gz
EHI
0 0 0 1 2 3 3 3 3 4 3 1 0 0 0 0 0 1 2 3 2 1 1 1 1 1 1 0 0 0 0 0 0 0 0 0 0 0 0 0 0 0 0
0 0 0 1 2 3 3 3 3 4 3 1 0 0 0 0 0 1 2 2 2 2 2 2 1 1 0 0 0 0 0 0 0 0 0 0 0 0 0 0 0 0 0
0 0 0 1 1 2 3 3 3 3 3 2 1 0 0 0 0 0 1 1 1 2 3 3 2 1 0 0 0 0 0 0 0 0 0 0 0 0 0 0 0 0 0
0 0 1 1 1 2 3 3 3 3 3 2 1 0 0 0 0 0 0 0 0 1 2 4 5 3 1 0 0 0 0 0 0 0 0 0 0 0 0 0 0 0 0
0 0 1 2 2 3 2 1 1 2 3 2 1 0 0 0 0 0 0 0 0 0 1 4 6 5 3 2 0 0 0 0 0 0 0 0 0 0 0 0 0 0 0
0 0 1 2 3 3 2 1 0 1 2 1 0 0 0 0 1 1 0 0 0 0 0 3 5 5 4 3 1 0 0 0 0 0 0 1 1 0 0 0 0 0 0
1 1 1 1 2 3 3 1 0 1 1 1 1 1 0 0 1 1 0 0 0 0 0 2 4 4 4 2 1 0 0 0 1 1 1 2 2 1 1 1 0 0 0
4 3 2 1 1 2 3 2 1 1 2 2 2 2 1 0 0 1 1 2 2 1 1 2 3 4 4 4 3 1 0 1 2 2 2 2 3 3 2 2 1 0 0
7 7 5 2 1 2 2 1 1 2 4 4 4 4 3 1 0 0 2 3 4 3 1 1 2 3 5 6 5 1 0 0 1 1 1 1 2 2 3 3 2 1 0
10 8 5 3 2 2 1 1 2 3 4 5 6 6 5 4 2 1 1 2 3 3 2 1 1 2 5 7 6 2 0 0 0 0 0 0 1 1 1 3 3 1 1
12 8 4 3 3 1 1 3 4 4 4 5 6 7 7 7 6 4 2 0 1 1 1 1 1 1 3 5 5 2 0 0 0 0 0 0 0 0 1 2 3 3 3
14 10 6 4 3 2 4 7 10 8 5 5 6 8 8 9 8 6 3 1 0 0 1 1 0 1 1 2 2 1 0 0 0 0 0 0 0 0 1 2 3 5 6
15 13 9 6 5 4 6 10 13 11 7 6 7 9 9 9 8 6 4 1 0 0 1 1 1 1 1 1 1 0 0 0 0 0 0 0 0 0 0 1 2 4 5
12 12 11 9 8 7 8 11 12 10 8 7 8 9 9 8 8 7 5 2 1 0 0 1 1 1 1 2 1 1 1 1 0 0 0 0 0 0 0 0 0 1 2
12 14 14 12 11 10 11 11 10 9 8 7 7 8 8 7 6 6 6 4 2 0 0 1 2 3 3 3 2 3 4 2 1 0 0 0 0 0 0 0 0 0 0
18 19 18 17 14 12 11 12 12 11 9 8 8 8 8 6 6 8 10 9 7 4 3 3 5 7 8 5 4 5 6 4 2 0 0 0 0 0 0 0 0 0 0
21 21 21 20 16 11 10 11 11 10 10 9 8 8 8 8 10 13 15 15 12 10 9 8 8 10 11 9 7 7 7 5 2 0 0 0 0 0 0 0 0 0 0
19 19 18 17 13 10 10 11 11 9 10 11 11 10 10 12 13 15 16 16 15 15 15 13 10 10 12 12 10 7 6 5 2 0 0 0 0 0 0 0 0 0 0
18 16 13 11 9 9 11 13 12 11 12 13 14 14 14 14 15 15 14 13 14 14 15 13 11 10 11 11 11 9 9 9 5 1 0 0 0 0 0 0 0 0 0
16 13 9 7 7 10 12 13 13 12 13 13 14 15 15 13 12 12 10 10 11 12 12 11 11 12 12 12 12 12 12 12 8 3 1 1 0 0 0 0 0 0 0
13 11 7 6 7 8 9 10 10 10 12 12 12 13 13 10 7 6 6 7 8 10 12 12 12 13 14 14 14 13 12 11 8 4 4 2 1 1 1 1 0 0 0
14 11 8 7 7 7 6 5 5 7 10 11 12 13 10 6 5 4 3 3 4 8 10 12 13 13 13 14 14 12 10 8 6 6 6 3 2 3 3 2 1 0 0
16 14 11 9 9 8 5 2 1 4 7 10 13 12 8 4 4 5 4 3 3 4 6 8 10 9 10 12 12 10 8 6 6 6 6 5 4 4 3 2 1 0 0
17 15 14 13 12 10 5 1 1 3 7 10 10 8 6 4 4 6 7 6 5 3 2 3 5 5 6 7 7 6 5 4 5 5 5 5 4 3 2 2 1 0 0
17 15 15 15 14 10 5 1 2 6 9 9 7 5 4 4 3 4 6 6 5 3 2 2 2 2 2 2 2 2 2 2 2 3 4 4 3 2 1 1 1 0 0
17 14 14 14 14 10 5 2 3 7 10 9 7 5 4 4 3 2 4 5 4 3 2 2 2 1 0 0 0 0 0 0 0 1 3 3 2 1 1 1 0 0 0

GEFSMA_con_prob3kmehi_240.txt.gz
EHI
4 5 6 8 9 9 8 7 7 8 8 6 4 5 6 5 5 10 14 17 17 14 11 8 7 7 6 3 1 0 1 0 0 0 0 0 0 0 0 0 0 0 0
5 5 6 6 7 7 8 7 7 8 9 7 5 6 6 6 7 8 12 15 16 15 12 9 8 8 8 5 2 2 2 2 1 1 0 0 0 0 0 0 0 0 0
6 6 6 5 4 5 7 7 7 8 7 6 6 6 6 7 9 10 13 16 16 14 13 12 10 9 9 8 5 4 5 5 3 1 0 0 0 0 0 0 0 0 0
7 7 7 5 5 6 6 6 6 7 6 5 6 7 6 7 10 12 15 18 17 15 15 15 13 11 10 9 8 7 8 7 4 2 0 0 0 0 0 0 0 0 0
9 9 9 8 7 7 7 5 6 7 6 5 6 6 7 8 10 10 12 16 18 18 17 16 15 13 12 11 10 9 9 9 6 2 0 0 0 0 0 0 0 0 0
11 10 11 11 11 10 8 7 8 8 7 5 4 4 5 8 9 8 8 12 17 19 18 18 17 15 14 13 12 11 10 10 8 5 2 2 2 1 0 0 0 0 0
13 13 14 15 14 12 11 10 10 9 7 5 3 1 2 5 7 8 8 10 12 14 16 18 18 17 14 13 13 13 12 11 10 7 5 5 4 2 1 1 0 0 0
17 16 19 21 18 15 14 15 13 10 7 6 4 2 1 2 3 6 8 10 10 9 10 13 18 19 17 16 15 13 13 12 11 11 8 5 4 3 3 2 1 1 0
22 22 24 25 22 18 16 17 17 14 9 6 5 3 2 2 2 3 6 9 9 8 6 8 15 21 21 19 16 13 12 11 11 12 10 6 4 3 3 3 3 2 1
28 28 28 27 25 19 16 16 17 15 10 6 5 5 5 4 3 2 4 6 8 9 8 6 11 19 22 21 18 14 11 9 7 8 8 6 5 4 3 3 3 3 3
32 32 31 30 27 21 16 14 13 12 9 7 6 7 6 6 4 2 2 3 6 10 11 8 10 15 18 18 17 15 12 7 4 3 3 3 4 3 2 2 2 2 2
33 35 35 33 31 25 20 15 12 11 10 9 9 8 6 6 5 3 2 1 3 6 9 11 13 16 15 14 14 13 11 7 2 1 0 1 1 1 1 0 1 1 1
35 36 36 35 33 29 24 20 17 14 14 14 13 11 9 7 7 5 2 0 0 2 5 9 13 15 13 11 11 11 10 6 1 0 0 0 0 0 0 0 0 0 0
37 37 37 35 32 26 23 22 21 19 19 19 16 14 12 10 8 6 3 1 1 1 2 4 8 11 10 10 10 11 10 5 1 0 0 0 0 0 0 0 0 0 0
38 40 40 35 30 24 20 20 20 21 23 22 19 16 15 12 9 7 7 6 4 3 2 2 4 6 7 7 8 10 11 6 1 0 0 0 0 0 0 0 0 0 0
41 42 41 36 31 26 21 18 17 18 21 22 20 17 16 14 12 11 11 11 8 4 3 3 3 5 5 5 5 8 9 6 2 0 0 0 0 0 0 0 0 0 0
44 43 41 37 31 27 23 19 16 14 15 17 16 14 14 15 16 13 11 10 9 5 4 3 4 6 8 7 6 6 6 4 2 1 0 0 0 0 0 0 0 0 0
45 44 42 37 30 25 21 18 15 13 12 12 11 9 11 15 16 14 10 8 7 7 5 4 4 7 9 9 8 7 4 2 1 1 0 0 0 0 0 0 0 0 0
44 44 42 36 29 22 17 14 12 11 10 10 9 8 10 15 16 13 11 8 6 6 7 6 5 6 8 8 8 7 4 2 1 0 0 0 0 0 0 0 0 0 0
43 42 39 32 24 17 11 9 10 11 11 10 9 9 10 13 14 11 9 7 5 5 7 7 6 5 6 7 8 7 4 3 1 0 0 0 0 0 0 0 0 0 0
39 38 34 25 15 9 7 7 9 10 10 10 10 10 9 9 9 7 5 4 3 3 5 6 5 3 3 6 9 7 4 2 1 1 1 0 0 0 0 0 0 0 0
33 34 29 20 11 7 5 5 5 7 8 9 10 11 9 8 6 3 2 1 1 1 2 3 3 2 2 5 7 6 3 2 1 1 2 1 0 0 0 0 0 0 0
32 31 28 22 14 9 5 2 3 4 6 8 10 10 10 8 6 4 2 1 0 0 1 2 3 3 3 3 5 5 4 2 1 1 2 1 0 0 0 0 0 0 0
32 31 30 24 17 11 5 1 1 4 7 8 9 9 9 8 7 5 3 2 1 0 0 1 2 2 2 2 3 4 3 1 0 0 1 1 0 0 0 0 0 0 0
32 31 29 23 16 10 5 1 1 4 7 8 7 7 7 6 5 4 3 2 2 1 1 1 1 1 1 1 1 1 1 0 0 1 1 1 0 0 0 0 0 0 0
32 30 26 20 15 11 5 1 2 6 7 7 6 5 5 5 4 2 2 3 3 2 2 1 0 0 0 0 0 0 0 0 0 1 2 2 1 0 0 1 1 1 0

GEFSMA_con_prob3kmehi_246.txt.gz
EHI
0 0 1 3 3 3 3 3 3 3 3 3 3 3 3 3 3 1 2 6 12 17 19 18 15 10 6 5 4 4 3 1 0 0 0 0 0 0 1 1 1 0 0
0 1 2 3 3 3 3 3 3 3 2 3 3 3 3 3 3 2 2 4 9 14 16 17 15 12 9 6 6 5 4 2 1 1 0 0 0 0 0 0 0 0 0
1 2 3 3 3 3 2 2 2 1 1 2 2 2 2 2 3 3 2 2 4 8 12 15 15 14 11 8 6 6 5 4 4 3 1 0 0 0 0 0 0 0 0
2 3 3 3 3 3 2 2 2 1 2 2 1 1 2 3 3 3 2 1 0 2 6 10 13 13 11 8 7 7 7 7 7 5 3 1 0 0 1 0 0 0 0
3 3 3 3 4 3 3 3 3 3 2 1 0 1 2 2 2 2 1 0 0 0 2 4 7 9 9 9 8 8 8 7 7 5 3 2 1 0 0 0 0 0 0
4 4 4 4 4 3 3 3 3 3 2 1 0 0 1 1 1 1 0 0 0 0 0 1 2 3 5 7 9 9 8 7 6 6 5 3 2 1 1 0 0 0 0
5 4 4 4 4 3 2 3 3 2 1 0 0 0 0 0 0 0 0 0 0 0 0 0 0 0 2 4 6 8 9 8 7 7 6 5 4 3 2 1 1 0 0
6 6 5 4 4 3 2 2 3 1 0 0 0 0 0 0 0 0 0 0 0 0 0 0 0 0 0 1 3 6 8 8 7 7 6 5 5 4 3 3 2 1 1
9 8 7 6 6 3 2 2 2 1 0 0 0 0 0 0 0 0 0 0 0 0 0 0 0 0 0 0 1 3 5 6 6 6 5 5 5 5 4 3 3 3 2
11 11 10 9 8 5 3 3 2 0 0 0 0 0 0 0 0 0 0 0 0 0 0 0 0 0 0 0 0 1 1 3 5 6 5 5 6 7 6 4 3 3 3
11 12 12 10 9 7 6 5 2 1 0 0 0 0 0 0 0 0 0 0 0 0 0 0 0 0 0 0 0 0 0 1 2 4 5 5 6 7 6 5 4 3 3
11 13 13 11 10 9 8 5 2 1 0 0 0 0 0 0 0 0 0 0 0 0 0 0 0 0 0 0 0 0 0 0 1 1 3 3 4 5 5 4 3 2 1
11 13 14 13 11 10 9 6 2 0 0 0 0 0 0 0 0 0 0 0 0 0 0 0 0 0 0 0 0 1 1 1 0 0 1 1 2 3 3 2 1 1 0
11 12 14 14 11 9 8 6 3 1 0 0 0 0 0 0 0 0 0 0 0 0 0 0 0 0 0 0 0 1 1 1 0 0 0 0 1 1 1 1 0 0 0
13 13 13 12 10 8 7 6 4 2 1 1 0 0 0 0 0 0 0 0 0 0 0 0 0 0 0 0 0 0 0 0 0 0 0 0 0 0 0 0 0 0 0
16 15 13 11 10 8 7 6 5 3 2 1 0 0 0 0 0 0 0 0 0 0 0 0 0 0 0 0 0 0 0 0 0 0 0 0 0 0 0 0 0 0 0
17 16 13 12 12 11 9 7 6 4 2 1 0 0 0 0 0 0 0 0 0 0 0 0 0 0 0 0 0 0 0 0 0 0 0 0 0 0 0 0 0 0 0
17 16 14 13 12 12 10 9 7 5 3 2 1 0 0 0 0 0 0 1 1 1 1 1 1 1 1 0 0 0 0 0 0 0 0 0 0 0 0 0 0 0 0
17 16 15 13 13 12 11 10 8 6 5 4 2 1 1 1 1 1 2 2 2 2 2 2 2 2 2 1 0 0 0 0 0 0 0 0 0 0 0 0 0 0 0
16 15 14 13 12 11 9 9 8 5 4 3 3 2 2 2 3 4 4 3 3 3 3 3 3 3 2 1 0 0 0 0 0 0 0 0 0 0 0 0 0 0 0
14 13 11 10 9 8 6 6 5 4 2 1 2 3 3 4 5 5 4 3 2 2 2 2 2 1 1 0 0 0 0 0 0 0 0 0 0 0 0 0 0 0 0
14 14 12 8 5 4 3 2 2 2 1 1 1 2 3 4 4 3 2 1 1 1 1 1 1 0 0 0 0 0 0 0 0 0 0 0 0 0 0 0 0 0 0
19 18 16 12 6 3 1 1 1 1 0 0 1 1 1 2 2 1 1 1 0 0 0 0 0 0 0 0 0 0 0 0 0 0 0 0 0 0 0 0 0 0 0
20 20 20 16 10 5 2 1 0 0 0 0 0 0 0 1 1 2 2 1 0 0 0 0 0 0 0 0 0 0 0 0 0 0 0 0 0 0 0 0 0 0 0
15 16 17 14 11 7 4 1 0 0 0 0 0 0 0 0 1 1 2 1 0 0 0 0 0 0 0 0 0 0 0 0 0 0 0 0 0 0 0 0 0 0 0
10 12 12 12 10 7 4 1 0 0 0 0 0 0 0 0 0 1 2 1 0 0 0 0 0 0 0 0 0 0 0 0 0 0 0 0 0 0 0 0 0 0 0

GEFSMA_con_prob3kmehi_252.txt.gz
EHI
0 0 0 0 0 0 1 3 3 2 2 3 3 3 3 2 1 1 0 0 0 0 1 1 1 2 2 2 1 0 0 0 0 1 1 0 0 0 0 0 0 0 0
0 0 0 0 0 1 2 3 3 1 1 2 3 2 2 2 2 2 1 1 0 0 0 0 1 1 1 1 1 1 1 1 1 1 1 0 0 0 0 0 0 0 0
1 1 0 0 0 1 3 3 3 1 1 1 1 1 1 1 1 2 2 2 1 0 0 0 0 1 1 1 2 2 3 2 1 1 1 0 0 0 0 0 0 0 0
2 1 0 0 1 2 3 3 3 2 1 0 0 0 0 0 0 1 2 2 2 1 0 0 0 1 1 1 1 2 4 4 3 2 1 0 0 0 0 0 0 0 0
2 1 0 0 1 3 3 3 2 1 0 0 0 0 0 0 0 0 1 1 2 1 0 0 0 0 0 1 1 2 4 4 5 4 3 2 1 0 0 0 0 0 0
2 2 1 1 2 3 3 1 1 0 0 0 0 0 0 0 0 0 0 0 1 1 0 0 0 0 0 0 1 2 3 3 3 4 5 4 3 1 0 0 0 0 0
3 3 3 3 3 3 3 1 1 0 0 0 0 0 0 0 0 0 0 0 0 0 0 0 0 0 0 0 0 0 1 1 1 2 3 4 4 2 1 0 0 0 0
3 3 3 3 3 3 3 2 1 0 0 0 0 0 0 0 0 0 0 0 0 0 0 0 0 0 0 0 0 0 0 0 0 0 1 2 3 2 1 1 1 1 0
3 3 3 3 3 3 2 1 1 0 0 0 0 0 0 0 0 0 0 0 0 0 0 0 0 0 0 0 0 0 0 0 0 0 0 0 1 1 1 2 2 2 1
1 2 3 3 3 2 1 0 0 0 0 0 0 0 0 0 0 0 0 0 0 0 0 0 0 0 0 0 0 0 0 0 0 0 0 0 0 0 1 2 3 3 3
0 1 3 3 3 2 0 0 0 0 1 0 0 0 0 0 0 0 0 0 0 0 0 0 0 0 0 0 0 0 0 0 0 0 0 0 0 0 0 1 3 3 3
1 1 3 3 3 2 1 0 0 0 0 0 0 0 0 0 0 0 0 0 0 0 0 0 0 0 0 0 0 0 0 0 0 0 0 0 0 0 0 1 2 3 3
3 3 3 3 4 3 2 1 0 0 0 0 0 0 0 0 0 0 0 0 0 0 0 0 0 0 0 0 0 0 0 0 0 0 0 0 0 0 0 0 1 1 2
5 4 3 3 4 4 3 2 1 1 1 0 0 0 0 0 0 0 0 0 0 0 0 0 0 0 0 0 0 0 0 0 0 0 0 0 0 0 0 0 0 0 1
6 5 4 3 3 4 4 3 3 2 2 1 0 0 0 0 0 0 0 0 0 0 0 0 0 0 0 0 0 0 0 0 0 0 0 0 0 0 0 0 0 0 0
7 6 5 3 3 4 4 3 3 3 3 2 1 0 0 0 0 0 0 0 0 0 0 0 0 0 0 0 0 0 0 0 0 0 0 0 0 0 0 0 0 0 0
8 6 4 3 3 4 3 3 3 3 3 3 2 1 0 0 0 0 0 0 0 1 2 1 1 1 1 1 0 0 0 0 0 0 0 0 0 0 0 0 0 0 0
7 6 4 4 4 4 4 4 3 3 3 3 3 2 1 0 0 0 0 0 1 2 3 3 2 2 2 1 0 0 0 0 0 0 0 0 0 0 0 0 0 0 0
6 5 5 5 6 6 6 5 3 3 3 3 3 2 1 0 0 0 0 0 2 3 3 3 3 3 3 1 0 0 0 0 0 0 0 0 0 0 0 0 0 0 0
4 4 5 5 6 6 6 5 3 3 3 3 2 1 0 0 0 0 0 0 1 3 3 3 3 3 2 1 0 0 0 0 0 0 0 0 0 0 0 0 0 0 0
5 5 5 4 5 5 4 4 4 4 3 1 1 0 0 0 0 0 0 0 1 2 3 3 3 1 1 0 0 0 0 0 0 0 0 0 0 0 0 0 0 0 0
8 8 6 5 5 4 3 3 3 4 3 1 0 0 0 0 0 0 0 0 0 1 2 3 2 1 0 0 0 0 0 0 0 0 0 0 0 0 0 0 0 0 0
9 9 8 6 5 4 2 1 1 2 2 1 0 0 0 0 0 1 1 0 0 0 1 1 2 1 0 0 0 0 0 0 0 0 0 0 0 0 0 0 0 0 0
9 9 9 7 4 2 1 0 0 1 1 0 0 0 0 0 0 1 1 0 0 0 0 0 1 1 0 0 0 0 0 0 0 0 0 0 0 0 0 0 0 0 0
10 10 9 7 4 1 0 0 0 0 0 0 0 0 0 0 0 0 0 0 0 0 0 0 0 0 0 0 0 0 0 0 0 0 0 0 1 1 0 0 0 0 0
12 11 9 6 3 1 0 0 0 0 0 0 1 1 1 0 0 0 0 0 0 0 0 0 0 0 0 0 0 0 0 0 0 0 0 1 2 2 1 0 0 0 0

GEFSMA_con_prob3kmehi_258.txt.gz
EHI
0 0 1 2 2 3 4 3 2 1 1 1 2 3 4 4 4 3 3 3 3 3 3 3 2 2 2 2 1 1 0 0 0 0 0 0 0 0 0 0 0 0 0
1 1 2 3 3 4 4 4 3 3 2 2 3 3 4 4 4 3 3 2 2 2 3 4 4 3 3 3 2 2 1 0 0 0 0 0 0 0 0 0 0 0 0
2 3 3 3 3 4 5 5 4 4 3 3 3 4 4 4 3 2 2 1 1 1 3 4 4 3 3 3 3 3 3 2 1 0 0 0 0 0 0 0 0 0 0
3 3 3 3 3 4 5 5 4 4 3 3 4 4 5 4 2 1 0 0 1 2 4 5 4 4 3 3 3 3 3 2 2 1 1 1 1 1 0 0 0 0 0
3 3 3 3 3 3 4 4 4 3 3 3 4 5 5 5 3 1 0 0 1 3 4 4 5 5 4 4 4 3 2 2 2 2 2 2 2 1 0 0 0 0 0
4 3 3 3 3 3 3 3 3 3 3 3 3 3 3 4 3 1 0 0 0 2 3 4 4 4 5 5 6 5 3 1 1 1 1 1 2 1 0 0 0 0 0
5 4 3 3 4 4 4 4 3 3 4 4 2 1 2 2 2 1 0 0 0 0 1 3 3 2 4 6 7 5 2 0 0 0 0 0 1 1 0 0 0 0 0
6 4 4 4 5 6 6 5 4 4 3 3 3 2 1 1 1 1 0 1 1 1 1 1 1 1 3 5 6 4 1 0 0 0 0 0 0 0 0 0 0 0 0
8 7 7 8 8 7 7 6 5 4 3 2 4 4 2 1 1 1 1 2 2 2 1 1 1 1 2 4 4 2 0 0 0 0 0 0 1 0 0 0 0 0 0
11 12 12 12 10 8 7 7 6 4 2 2 4 5 4 2 2 1 1 1 1 1 0 0 1 2 3 4 4 2 0 0 0 0 0 0 0 0 0 0 0 0 0
13 13 13 13 11 8 7 7 8 6 3 3 5 5 5 3 2 1 1 1 1 0 0 0 1 2 2 3 4 1 0 0 0 0 0 0 0 0 0 0 0 0 0
14 12 12 13 12 9 9 10 10 8 7 6 6 5 4 3 3 2 1 2 2 1 0 0 0 1 2 3 3 1 0 0 0 0 0 0 0 0 0 0 0 0 0
16 13 12 13 13 11 11 12 12 10 9 9 6 4 4 4 4 3 2 2 2 2 1 1 1 2 3 4 3 1 0 0 0 0 0 0 0 0 0 0 0 0 0
16 14 12 13 13 12 12 14 14 11 9 9 7 5 6 6 5 3 3 4 4 4 3 2 2 3 4 5 3 1 1 0 0 0 0 0 0 0 0 0 0 0 0
17 16 14 14 14 13 12 13 13 11 9 9 8 8 8 8 6 6 7 7 6 5 4 3 2 2 3 3 2 2 1 0 0 0 0 0 0 0 0 0 0 0 0
23 20 18 16 15 14 13 11 10 10 9 9 10 10 9 7 7 9 10 9 8 6 3 2 2 2 2 2 2 3 2 1 0 0 0 0 0 0 0 0 0 0 0
31 27 22 19 17 16 15 13 10 8 9 9 10 10 7 5 6 8 8 9 9 7 4 3 3 3 4 3 3 3 2 1 0 0 0 0 0 0 0 0 0 0 0
36 32 25 20 18 18 18 15 11 8 9 9 9 9 7 5 4 6 7 7 8 7 5 4 4 5 5 4 4 3 1 1 0 0 0 0 0 0 0 0 0 0 0
37 32 26 21 19 17 18 16 12 10 9 9 9 9 7 5 4 4 5 6 6 6 4 3 4 5 4 3 3 2 1 1 0 0 0 0 0 0 0 0 0 0 0
30 27 23 21 18 15 15 15 14 12 11 10 9 8 7 5 4 3 4 5 5 4 3 2 2 3 3 3 3 2 1 1 0 0 1 0 0 0 0 0 0 0 0
20 20 19 18 16 13 12 13 13 12 12 11 10 9 6 5 4 2 1 2 2 1 1 1 0 1 2 3 3 3 2 1 0 1 2 2 1 0 0 0 0 0 0
16 17 17 17 15 11 10 10 9 11 11 11 10 9 7 4 2 1 0 0 0 0 0 0 0 0 2 3 3 3 2 1 0 1 2 3 2 1 1 0 0 0 0
16 17 18 18 16 11 7 5 5 7 9 9 9 9 8 5 3 2 1 0 1 1 1 1 1 0 1 3 4 3 2 1 1 1 1 2 2 2 1 0 0 0 0
17 18 18 18 17 11 5 2 2 4 5 6 6 7 8 7 5 3 1 1 2 2 2 2 2 1 1 3 4 4 2 1 0 0 0 1 1 1 1 0 0 0 0
17 19 19 20 18 12 4 0 1 3 4 4 5 6 7 7 5 2 1 2 2 3 3 2 2 1 1 2 3 3 2 0 0 0 0 0 0 0 0 0 0 0 0
17 19 21 21 20 14 5 1 1 3 5 5 5 6 6 5 4 2 2 3 3 3 3 2 1 1 1 1 2 2 1 0 0 0 0 0 0 0 0 0 0 0 0